Location: Calberlah
(52.4230°N, 10.6240°E)
Time: 06:04:44
(UTC+00:00)

Cosmos 220 Rocket - Pass Details

Date: 19 May 2025
Orbit: 546 x 580 km, 74.0° (Epoch: 14 June)

Event Time Altitude Azimuth Distance (km) Brightness Sun altitude
Exits shadow 21:57:21 13° 217° (SW) 1,628 5.9 -15.7°
Maximum altitude 22:00:52 64° 297° (WNW) 617 4.2 -15.9°
Drops below altitude 10° 22:04:55 10° 20° (NNE) 1,832 7.3 -16.1°
Sets 22:07:08 0° 24° (NNE) 2,729 8.2 -16.1°
